World > North America > United States > Alabama > Graysville  

Graysville, AL Hourly Weather Updates

Feedback E-mail the Weather

Quick Clicks

Graysville, AL Weather Maps

°F °C°F °C
Graysville Weather Map
UTC Time: 4/22/2024, 16:55
Your Time:

Graysville, AL Regional Weather

Expires:202404221700;;191438
ASUS44 KBMX 221610
RWRAL 
             
ALABAMA REGIONAL WEATHER ROUNDUP
NATIONAL WEATHER SERVICE BIRMINGHAM AL
1100 AM CDT MON APR 22 2024

NOTE: "FAIR" INDICATES FEW OR NO CLOUDS BELOW 12,000 FEET
WITH NO SIGNIFICANT WEATHER AND/OR OBSTRUCTIONS TO VISIBILITY.

THE REMARK "TC" DENOTES TEMPERATURE IN DEGREES CELSIUS.


ALZ015-024>026-033>036-041>044-221700-
CENTRAL ALABAMA
  
CITY           SKY/WX    TMP DP  RH WIND       PRES   REMARKS
BIRMINGHAM     SUNNY     58  33  39 N10       30.27R TC  14           
MONTGOMERY     SUNNY     59  36  42 NE10G22   30.23S TC  15           
SHELBY CO ARPT SUNNY     58  34  40 MISG      30.24S TC  14           
MAXWELL AFB    SUNNY     60  35  39 N9        30.21S TC  16           
GREENVILLE     SUNNY     57  35  43 NE13      30.20F TC  14           
SELMA          SUNNY     59  36  41 N7G17     30.24S TC  15           
PRATTVILLE     SUNNY     59  34  39 NE5       30.23S TC  15           
BESSEMER       SUNNY     58  31  35 N9        30.25S TC  14           
TALLADEGA      SUNNY     59  34  38 NE9       30.22S TC  15           
PELL CITY      SUNNY     59  32  36 NE8       30.24F TC  15           
SYLACAUGA      PTSUNNY   58  34  41 NE6       30.23S TC  14           
JASPER         SUNNY     57  36  44 VRB3      30.27S TC  14           
$$
 

SKY/WX - Weather  TMP - Temperature  DP - Dew Point  RH - Humidity
WIND - Wind Direction/Speed PRES - Barometric Pressure VSB - Visibility
WCI - Wind Chill Index E13G22 Wind - East Wind 13 mph/Gusts of 22 mph

Trending Headlines

Trending Entertainment Headlines

Graysville Radar Loop

Use the map search tool if you want to place a location marker on the radar map...

Graysville Quick Facts

National Two Day Weather Forecast


E-mail the Graysville Weather Forecast

Voice your opinion or tell us about page issues...